Terug naar catalogus

STARLINK-37575

ActiefCommunicatieVLEO
NORAD 69454·PAYLOAD·🇺🇸 United States

Gelanceerd Jun 8, 2026 vanaf Cape Canaveral Space Force Station

Loading…

Volgende Passages (komende 24 uur)

TLE

VersSource: CelesTrak SupGP

Epoch: Sep 14, 2026, 23:03 UTC

1 69454C 26127M   26257.96090278 -.00031553  00000+0 -93200-3 0  2571
2 69454  53.1581 191.8966 0001360  90.1998  58.1655 15.34414811    12

Volg STARLINK-37575 in realtime met AllMySat

Download on the App Store